Location: ??????
(54.7303°N, 38.9592°E)
Time: 06:19:38
(UTC+00:00)

Daily predictions for brighter satellites

Satellite Brightness Start Highest point End
(mag) Time Altitude Azimuth Time Altitude Azimuth Time Altitude Azimuth
SeaSat 1 3.5 18:56:40 10° S 19:01:14 38° WSW 19:05:49 10° NW
Cosmos 2219 Rocket 2.3 18:57:06 10° NW 19:02:49 82° WSW 19:08:30 10° SSE
Cosmos 968 Rocket 3.6 18:57:55 10° S 19:02:58 58° ESE 19:08:06 10° NNE
SJ 16-02 1.8 18:59:16 10° S 19:03:21 43° ESE 19:07:28 10° NE
Cosmos 1570 Rocket 4.4 18:58:28 10° NNW 19:03:48 61° ENE 19:09:06 10° SE
USA 234 3.4 19:01:58 10° ENE 19:08:20 50° SE 19:14:39 10° SW
COSMOS 2428 3.0 19:02:40 10° NNW 19:08:21 65° NE 19:14:01 10° SE
Orbus 7S? 3.3 19:04:36 10° W 19:08:46 68° NNW 19:11:29 10° ENE
Cosmos 1707 Rocket 3.6 19:06:10 10° S 19:10:37 89° W 19:15:05 10° NNE
SPOT 3 Rocket 4.2 19:07:42 10° S 19:12:44 52° W 19:17:48 10° NNW
Cosmos 1814 Rocket 4.4 19:08:30 10° NNW 19:13:44 61° WSW 19:18:59 10° S
Cosmos 1400 Rocket 3.9 19:10:45 10° SW 19:14:27 44° WNW 19:18:09 10° N
Cosmos 1741 Rocket 4.1 19:09:16 10° SSW 19:14:33 88° ESE 19:19:55 10° NNE
Meteor 1-21 4.3 19:09:11 10° S 19:14:59 84° ESE 19:20:51 10° NNE
ATLAS CENTAUR R/B 0.9 19:14:42 10° SW 19:18:12 70° SE 19:21:52 10° NE
Cosmos 1408 4.3 19:23:46 10° ESE 19:25:18 13° E 19:26:51 10° NE
Cosmos 1733 Rocket 4.2 19:21:35 10° NNW 19:25:44 41° W 19:29:53 10° SSW
Cosmos 1356 Rocket 4.0 19:23:09 10° SSW 19:27:19 60° WNW 19:31:30 10° N
NOSS 5 (C) 4.2 19:24:04 10° NW 19:27:19 71° SW 19:30:22 11° SE
Cosmos 2360 Rocket 3.4 19:23:07 10° NW 19:28:11 34° WSW 19:33:14 10° S
Cosmos 1953 2.2 19:24:42 10° NNW 19:28:35 86° WSW 19:32:23 10° S
Okean 1-7 3.1 19:25:53 10° S 19:30:10 66° E 19:34:28 10° NNE
Terra 3.5 19:26:10 10° SSW 19:30:13 28° W 19:34:18 10° NNW
Okean 2 3.4 19:27:26 10° S 19:31:24 64° E 19:35:24 10° NNE
BlueWalker 3 3.3 19:31:44 10° S 19:34:20 18° SE 19:36:56 10° E
ARIANE 5 R/B 2.8 19:30:16 10° SSE 19:34:29 63° ENE 19:38:48 10° N
Cosmos 1315 Rocket 2.8 19:31:32 10° S 19:35:30 70° E 19:39:29 10° NNE
Cosmos 2208 Rocket 4.0 19:34:26 10° NNW 19:39:42 83° ENE 19:44:38 11° SSE
Nadezhda 1 Rocket 4.1 19:33:28 10° N 19:39:49 71° ENE 19:45:48 11° SSE
SL-16 R/B 4.4 19:37:31 10° WNW 19:40:46 16° W 19:44:01 10° SW
Cosmos 1908 Rocket 3.6 19:37:01 10° NNW 19:41:23 76° W 19:45:37 10° S
Cosmos 1455 2.3 19:40:20 10° NNW 19:43:49 63° W 19:47:09 11° S
Cosmos 1782 Rocket 3.7 19:40:04 10° N 19:44:24 67° ENE 19:48:19 12° SSE
GP-B 3.2 19:40:23 10° N 19:44:47 65° E 19:48:54 12° S
Cosmos 2333 Rocket 3.7 19:42:33 10° NW 19:47:22 28° WSW 19:52:10 10° SSW
SL-27 R/B 3.7 19:48:01 10° WSW 19:50:34 32° WNW 19:53:09 10° N
Aureole 3 4.4 19:47:16 10° SSW 19:51:28 58° WNW 19:56:46 10° N
ATLAS 2AS CENTAUR R/B 3.9 19:49:01 10° WNW 19:54:37 28° WSW 20:00:05 10° S
SL-16 R/B 3.8 19:53:11 10° NNW 19:58:18 32° NE 20:03:23 10° E
GENESIS II 4.5 19:56:18 10° SSW 19:59:44 41° SE 20:03:11 10° ENE
Cosmos 1300 Rocket 3.5 19:55:46 10° N 20:00:06 78° ENE 20:03:50 14° SSE
COSMOS 2455 3.7 19:55:26 11° S 20:00:30 33° ESE 20:05:48 10° NE
USA 281 3.3 19:56:48 12° SSE 20:03:00 73° WSW 20:09:37 10° NNW
Cosmos 1833 4.5 19:58:53 10° SW 20:04:30 72° NW 20:10:09 10° NNE
Cosmos 2237 Rocket 2.4 19:59:09 10° NNW 20:04:50 70° NE 20:10:27 10° SE
Landsat 5 4.3 20:01:22 10° N 20:05:14 47° WNW 20:09:12 10° SW
Cosmos 1703 4.4 20:03:35 13° SE 20:06:09 27° E 20:09:20 10° NNE
Cosmos 2322 4.3 20:04:08 10° NW 20:09:35 49° WSW 20:14:26 13° S
NOSS 0 Rocket 4.0 20:05:25 10° NW 20:11:39 75° WSW 20:17:15 13° SSE
Spot 4 3.9 20:08:52 13° SSE 20:13:04 76° ENE 20:17:55 10° NNW
Cosmos 2227 Rocket 3.9 20:11:36 10° SE 20:15:06 17° E 20:18:38 10° ENE
Cosmos 2098 Rocket 4.4 20:08:43 10° N 20:15:16 59° ENE 20:21:01 13° SSE
Cosmos 1486 Rocket 4.5 20:12:04 13° S 20:16:23 44° ESE 20:21:20 10° NE
Meteor 1-4 Rocket 4.1 20:14:14 10° SW 20:16:48 26° WNW 20:19:26 10° N
Cosmos 1980 3.8 20:12:33 10° NNW 20:18:16 86° ENE 20:23:30 12° SSE
Okean 2 Rocket 4.2 20:14:42 10° N 20:18:50 35° ENE 20:22:48 11° SE
Cosmos 1242 Rocket 2.4 20:16:40 11° SSW 20:19:14 53° WNW 20:21:57 10° N
Cosmos 1825 4.3 20:20:20 10° ESE 20:22:05 13° E 20:23:51 10° NE
Meteor 1-24 Rocket 4.3 20:18:14 14° SSE 20:22:55 44° E 20:28:10 10° NNE
BREEZE-M DEB (TANK) 1.5 20:20:11 10° W 20:24:11 61° S 20:26:14 10° ESE
ALOS 2 2.8 20:20:31 14° SSE 20:24:12 69° ENE 20:28:35 10° N
H-2A R/B 2.6 20:22:25 15° S 20:25:56 76° WSW 20:30:11 10° NNW
Cosmos 1703 Rocket 4.1 20:22:50 10° SSW 20:27:14 57° WNW 20:31:39 10° N
EXPRESS MD2 3.3 20:26:39 10° WSW 20:28:21 21° SSW 20:28:21 21° SSW
Cosmos 2297 Rocket 2.9 20:30:07 14° S 20:34:24 38° ESE 20:39:36 10° NE
SL-4 R/B 2.9 20:31:29 10° W 20:35:00 30° SSW 20:37:39 16° SSE
Cosmos 1709 Rocket 4.1 20:30:06 13° S 20:35:51 77° E 20:42:12 10° NNE
SJ 16-02 3.1 20:37:57 10° WSW 20:41:50 31° NW 20:45:45 10° NNE
Cosmos 2219 Rocket 4.1 20:42:11 10° WNW 20:45:56 18° W 20:49:41 10° SW
Sich 1 Rocket 3.9 20:41:43 10° N 20:46:05 58° ENE 20:49:36 15° SSE
CZ-4C R/B 2.3 20:43:51 13° SSW 20:47:46 46° SE 20:53:20 10° NE
Cosmos 2242 Rocket 3.7 20:46:03 14° SSW 20:49:58 82° W 20:54:36 10° N
USA 234 3.3 20:45:08 10° ENE 20:51:44 87° NNW 20:58:17 10° WSW
COSMOS 2428 3.9 20:47:20 10° NW 20:52:16 31° WSW 20:56:33 13° SSW
CENTAUR R/B 3.8 20:49:56 14° SSE 20:53:34 24° ESE 20:58:53 10° ENE
NOSS 8 (E) 4.2 20:50:07 10° SW 20:53:44 65° SE 20:56:43 10° NE
ATLAS CENTAUR R/B 3.3 20:53:01 10° W 20:56:10 28° NNW 20:59:28 10° NE
Cosmos 1408 2.9 20:55:18 14° SW 20:57:40 43° WNW 21:00:34 10° N
Meteor 2-5 Rocket 3.8 20:58:01 15° S 21:03:04 82° E 21:08:54 10° NNE
Cosmos 2263 Rocket 4.0 21:02:20 10° SE 21:05:42 17° E 21:09:04 10° ENE
Cosmos 1818 4.3 21:00:59 10° NW 21:06:26 57° NE 21:11:49 10° ESE
Cosmos 405 Rocket 2.9 21:05:31 10° NNW 21:09:13 57° W 21:11:47 18° S
ARIANE 5 R/B 4.5 21:08:05 10° SW 21:11:17 20° W 21:14:31 10° NW
BlueWalker 3 2.0 21:08:17 10° WSW 21:11:55 50° SSE 21:15:33 10° E
Okean 1 Rocket 3.2 21:10:32 10° N 21:14:54 71° ENE 21:18:20 16° SSE
Cosmos 371 Rocket 3.4 21:15:10 11° SSW 21:19:46 76° WNW 21:24:38 10° NNE
Cosmos 2084 Rocket 3.8 21:20:54 17° SSW 21:23:53 43° SE 21:27:49 10° ENE
PSLV R/B 3.5 21:22:51 10° NNE 21:27:07 81° ESE 21:30:16 17° SSW
Cosmos 1538 Rocket 4.0 21:24:31 10° NNW 21:29:46 89° WSW 21:34:29 13° SSE
Cosmos 1777 Rocket 4.0 21:25:44 14° SSW 21:30:20 86° ESE 21:35:39 10° NNE
NOSS 8 (H) 4.2 21:26:55 10° SW 21:30:21 81° NW 21:33:16 10° NE
H-2A R/B 2.2 21:26:56 10° NNE 21:31:10 60° ESE 21:34:11 18° S
Cosmos 1503 Rocket 4.1 21:26:53 12° SSW 21:31:49 82° WNW 21:37:09 10° NNE
Cosmos 1892 2.4 21:31:59 20° S 21:34:21 87° E 21:37:54 10° NNE
Cosmos 2181 Rocket 4.4 21:31:04 10° NNW 21:37:05 54° W 21:42:03 15° SSW
SL-16 R/B 2.2 21:37:16 10° NW 21:42:59 77° WSW 21:48:23 11° SSE
Cosmos 1975 Rocket 4.4 21:39:37 12° SSE 21:43:07 30° E 21:46:58 10° NNE
NOSS 3-2 (A) 4.3 21:40:26 15° S 21:43:57 30° ESE 21:49:12 10° ENE
Helios 1A Rocket 4.0 21:41:58 10° SE 21:45:30 37° ENE 21:49:03 10° N
COSMOS 2455 3.1 21:40:03 10° SW 21:46:04 71° NW 21:52:08 10° NE
GEOS 3 Rocket 4.4 21:42:19 10° ENE 21:47:03 35° ESE 21:50:33 16° S
Cosmos 2237 Rocket 3.4 21:43:44 10° NW 21:48:28 28° WSW 21:52:14 14° SSW
Cosmos 1455 Rocket 3.2 21:46:00 10° N 21:50:28 72° ENE 21:54:16 14° SSE
CZ-2D R/B 4.5 21:48:59 10° ENE 21:51:10 12° E 21:53:19 10° ESE
Cosmos 2074 Rocket 4.0 21:46:00 15° S 21:51:13 87° W 21:57:30 10° N
Orbus 7S? 2.4 21:49:23 10° WNW 21:52:05 76° SSW 21:55:10 10° ESE
Cosmos 1328 3.7 21:51:50 18° S 21:54:37 82° E 21:58:32 10° NNE
Cosmos 1825 2.2 21:53:24 18° SSW 21:55:49 59° WNW 21:59:13 10° N
Cosmos 1943 3.8 21:50:21 10° NNW 21:55:56 57° NE 22:01:27 10° SE
Okean 2 Rocket 4.1 21:52:48 10° NNW 21:56:52 35° W 22:00:06 15° SSW
Cosmos 923 Rocket 4.2 21:52:16 10° NNW 21:57:35 75° ENE 22:02:48 10° SSE
CZ-2C R/B 4.4 21:53:38 10° ESE 21:58:12 30° ENE 22:02:51 10° N
Cosmos 2227 Rocket 2.2 21:53:22 14° SSW 21:58:15 78° ESE 22:03:57 10° NE
Cosmos 1869 4.4 21:56:03 10° N 21:59:32 37° ENE 22:02:59 10° SE
ALOS 2 4.5 21:57:55 10° SW 22:01:00 19° W 22:04:09 10° NW
Cosmos 1674 Rocket 4.1 21:58:17 14° SSW 22:01:49 52° WNW 22:06:05 10° N
Cosmos 1378 Rocket 4.3 21:58:19 13° SW 22:01:59 45° WNW 22:06:14 10° N
Cosmos 292 Rocket 4.4 21:58:57 15° S 22:02:31 43° ESE 22:07:05 10° NE
Cosmos 1025 Rocket 3.0 22:00:50 17° S 22:04:09 80° E 22:08:29 10° NNE
Cosmos 1898 Rocket 4.2 22:07:10 14° S 22:11:14 42° ESE 22:16:06 10° NE
Cosmos 332 Rocket 4.1 22:09:31 12° SW 22:13:58 67° WNW 22:18:52 10° NNE
Aureole 1 Rocket 3.3 22:14:13 17° S 22:17:01 54° ESE 22:21:42 10° NNE
Cosmos 2297 Rocket 2.9 22:12:48 10° SW 22:18:20 53° NW 22:23:53 10° NNE
Nadezhda 3 Rocket 4.4 22:16:49 10° NNW 22:22:53 52° W 22:28:07 14° SSW
Cosmos 2219 3.3 22:18:32 14° SSW 22:23:18 70° ESE 22:28:55 10° NE
Cosmos 1606 2.8 22:21:52 10° N 22:25:26 68° ENE 22:28:47 11° SSE
Resurs 1-4 Rocket 3.9 22:21:41 10° NE 22:25:51 23° E 22:30:00 10° SE
Meteor 1-21 Rocket 4.3 22:23:19 14° SSW 22:28:18 86° WNW 22:34:00 10° NNE
Cosmos 2218 Rocket 4.5 22:28:39 10° S 22:34:41 57° E 22:40:42 10° NNE
USA 234 3.6 22:28:09 10° E 22:34:41 74° N 22:41:13 10° W
ATLAS CENTAUR R/B 4.2 22:32:13 10° NW 22:34:51 18° N 22:37:34 10° NE
CZ-4C R/B 2.9 22:31:08 10° WSW 22:36:05 56° NNW 22:42:27 10° NE
Cosmos 2366 rocket 4.3 22:33:06 11° S 22:39:08 63° E 22:45:17 10° NNE
Cosmos 1680 Rocket 3.5 22:33:57 10° NNW 22:39:10 74° WSW 22:44:21 10° SSE
Cosmos 2112 Rocket 4.0 22:36:59 10° NNW 22:42:12 80° WSW 22:47:23 10° SSE
BREEZE-M DEB (TANK) 3.6 22:38:49 10° W 22:42:54 19° SW 22:44:22 15° SSW
CENTAUR R/B 2.6 22:37:05 10° SW 22:43:05 84° SE 22:50:37 10° NE
COBE Rocket 4.5 22:43:18 10° NNE 22:48:23 57° E 22:53:29 10° S
Cosmos 2263 Rocket 2.2 22:43:42 13° SSW 22:48:44 77° ESE 22:54:19 10° NE
BlueWalker 3 1.8 22:46:11 10° W 22:49:55 71° S 22:53:39 10° E
Cosmos 1818 4.0 22:44:46 10° NW 22:49:56 43° WSW 22:55:04 10° SSE
Cosmos 990 Rocket 4.4 22:47:52 10° SW 22:52:54 56° WNW 22:57:59 10° NNE
Cosmos 2228 3.0 22:49:52 10° NNW 22:54:13 88° ENE 22:58:31 10° S
Cosmos 1544 Rocket 3.7 22:57:59 10° NNW 23:02:24 62° W 23:06:45 10° S
Cosmos 2084 Rocket 4.2 22:58:54 10° WSW 23:02:59 48° NNW 23:06:57 10° NE
H-2A R/B 3.9 23:03:11 10° N 23:06:32 22° WNW 23:09:48 10° WSW
Cosmos 1844 Rocket 4.1 23:03:16 10° SSE 23:08:01 29° ESE 23:12:46 10° NE
SL-8 Rocket 4.1 23:03:22 11° SSW 23:09:21 78° WNW 23:15:37 10° N
MOZ.5/SAFIR/RUBIN 5/SL-8 4.0 23:04:53 10° S 23:09:27 56° WSW 23:14:01 10° NNW
IDEFIX/ARIANE 42P 3.0 23:04:37 10° NNE 23:09:50 59° ESE 23:14:59 10° S
SL-16 R/B 3.3 23:06:44 10° SE 23:12:48 56° ENE 23:18:52 10° NNW
Cosmos 1048 Rocket 4.3 23:09:01 10° NNW 23:14:15 73° ENE 23:19:31 10° SE
Meteor 1-27 4.3 23:08:22 10° NNW 23:14:15 84° WSW 23:20:02 10° S
Cosmos 724 4.4 23:11:29 10° NW 23:17:20 86° NE 23:23:11 10° SE
Helios 1A Rocket 4.0 23:16:52 11° SSW 23:19:55 26° W 23:23:11 10° NW
Cosmos 1975 Rocket 3.9 23:16:41 10° SW 23:20:48 39° WNW 23:24:59 10° N
CZ-2C R/B 3.9 23:16:36 10° NNE 23:21:55 49° E 23:26:55 10° S
Cosmos 372 Rocket 4.2 23:19:23 10° SW 23:24:35 70° WNW 23:29:49 10° NNE
Cosmos 494 Rocket 4.0 23:19:37 10° NNW 23:24:52 76° WSW 23:30:06 10° SSE
Cosmos 1727 Rocket 4.1 23:18:56 10° NNW 23:25:17 80° W 23:31:39 10° S
Meteor 1-28 Rocket 4.1 23:21:56 10° SE 23:25:20 47° ENE 23:28:47 10° N
GEOS 3 Rocket 3.8 23:20:12 10° NE 23:25:23 72° NW 23:30:30 10° WSW
ALOS 4.1 23:21:49 10° NE 23:25:41 25° E 23:29:29 10° SSE
SL-16 R/B 3.9 23:22:40 10° WNW 23:26:12 17° W 23:29:42 10° SW
Cosmos 1461 2.7 23:23:27 10° SW 23:27:23 78° SE 23:31:16 10° NE
Cosmos 921 Rocket 2.9 23:25:27 10° NNW 23:29:43 76° WSW 23:33:53 10° SSE
Meteor 2-13 Rocket 4.5 23:24:45 10° NNW 23:30:50 72° W 23:36:55 10° S
Cosmos 1603 3.9 23:26:21 10° NW 23:31:59 57° WSW 23:37:34 10° SSE
CZ-2D R/B 2.5 23:26:57 10° NNE 23:32:17 64° ESE 23:37:32 10° S
NOSS 3-2 (A) 3.5 23:28:35 10° SW 23:34:04 79° NW 23:40:48 10° NE
Cosmos 1606 Rocket 3.6 23:33:20 10° NNW 23:37:49 89° WNW 23:42:15 10° S
CZ-2C R/B 2.8 23:32:52 10° S 23:38:08 62° WSW 23:43:33 10° NNW
Cosmos 1943 3.9 23:34:42 10° NW 23:39:45 35° WSW 23:44:45 10° S
FENGYUN 3A 4.3 23:35:47 10° NNE 23:41:05 53° E 23:46:20 10° S
NOSS 3-2 (C) 3.5 23:35:47 10° SW 23:41:11 72° SE 23:47:43 10° NE
Cosmos 2082 4.1 23:35:57 10° SW 23:41:29 57° NW 23:47:03 10° NNE
Cosmos 1867 4.3 23:36:32 10° SSW 23:41:44 46° ESE 23:46:58 10° NE
Cosmos 2227 Rocket 3.7 23:37:50 10° W 23:42:53 32° NW 23:47:57 10° NNE
Cosmos 1937 Rocket 3.9 23:41:43 10° SW 23:46:54 56° WNW 23:52:04 10° NNE
Cosmos 1437 Rocket 2.7 23:43:19 10° SSW 23:47:09 89° ESE 23:50:55 10° NNE
ADEOS II 2.5 23:43:09 10° NNE 23:48:23 61° ESE 23:53:34 10° S
MSX 3.9 23:43:03 10° NNE 23:48:50 87° W 23:54:34 10° SSW
Cosmos 1536 Rocket 3.8 23:45:58 10° SSW 23:50:23 64° WNW 23:54:47 10° N
